Regional Weather Roundup
Issued by NWS Albany, NY

Home | Current Version | Previous Version | Text Only | Print | Product List | Glossary On
Versions: 1 2 3 4 5 6 7 8 9 10 11 12 13 14 15 16 17 18 19 20 21 22 23 24 25 26 27 28 29 30 31 32 33 34 35 36 37 38 39 40 41 42 43 44 45 46 47 48 49
000
ASUS41 KALY 050010
RWRALY

NEW YORK STATE HOURLY WEATHER ROUNDUP
NATIONAL WEATHER SERVICE ALBANY NY
800 PM EDT FRI SEP 04 2015

NOTE: "FAIR" INDICATES FEW OR NO CLOUDS BELOW 12,000 FEET WITH NO
SIGNIFICANT WEATHER AND/OR NO OBSTRUCTIONS TO VISIBILITY.

NYZ032-033-038>043-046>054-057>066-NYZ062>081-050100-
EAST


CITY           SKY/WX    TMP DP  RH WIND       PRES   REMARKS
ALBANY         FAIR      77  61  57 SE5       30.16R
GLENS FALLS    FAIR      77  59  53 NE8       30.15R
POUGHKEEPSIE   FAIR      76  63  64 E3        30.14R
NEWBURGH       PTCLDY    77  66  69 E9        30.17R
MONTGOMERY     CLOUDY    76  68  76 NE5       30.15R
WHITE PLAINS   FAIR      74  63  68 E5        30.16R
ISLIP          FAIR      73  63  70 E9        30.14R
NEW YORK CITY  FAIR      78  64  61 SE9       30.13R
CENTRAL PARK   FAIR      79  64  60 SE7       30.16R
$$

NYZ005>009-017-018-044>046-055-056-050100-
CENTRAL


CITY           SKY/WX    TMP DP  RH WIND       PRES   REMARKS
FULTON         FAIR      73  61  65 NE5       30.13R
SYRACUSE       MOCLDY    77  63  61 NE5       30.11R
ROME           FAIR      76  63  64 E7        30.14R
ELMIRA         FAIR      79  69  71 E8        30.10R
BINGHAMTON     FAIR      73  66  78 SE8       30.16R
MONTICELLO     FAIR      70  66  88 E5        30.21R
$$

NYZ026>034-041>043-050100-
NORTH


CITY           SKY/WX    TMP DP  RH WIND       PRES   REMARKS
WATERTOWN      FAIR      71  58  63 N6        30.14R
FORT DRUM      NOT AVBL
MASSENA        FAIR      65  51  60 NE5       30.19S
SARANAC LAKE   FAIR      63  53  70 NE7       30.22R
PLATTSBURGH    FAIR      71  57  61 N8        30.19R
$$

NYZ001>004-010>016-019>021-050100-
WEST


CITY           SKY/WX    TMP DP  RH WIND       PRES   REMARKS
NIAGARA FALLS  FAIR      74  52  46 E9        30.10R
BUFFALO        FAIR      75  61  61 NE9       30.10R
DUNKIRK        FAIR      71  69  93 SW5       30.08R
JAMESTOWN      FAIR      70  63  78 CALM      30.14R
WELLSVILLE     FAIR      75  62  64 SE5       30.18R
ROCHESTER      FAIR      74  59  59 E8        30.13R
PENN YAN       FAIR      75  66  73 VRB3      30.14R
$$

             KEY
       WCI = WIND CHILL INDEX
       VSB = VISIBILITY
       HX  = HEAT INDEX
$$



USA.gov is the U.S. government's official web portal to all federal, state and local government web resources and services.